Location: Goettingen
(51.5300°N, 9.9433°E)
Time: 21:46:56
(UTC+02:00)

ISS - Pass Details

Date: 21 September 2019
Orbit: 411 x 421 km, 51.6° (Epoch: 19 September)

Event Time Altitude Azimuth Distance (km) Brightness Sun altitude
Rises 20:34:33 0° 216° (SW) 2,335 0.3 -12.0°
Maximum altitude 20:39:36 24° 147° (SSE) 900 -2.5 -12.7°
Enters shadow 20:40:17 22° 127° (SE) 947 -2.5 -12.8°
